Ann Arbor, MI

8:43 AM EDT on June 29, 2017 (GMT -0400)
Ann Arbor W | | Change Station

Elev 1025 ft 42.26 °N, 83.79 °W | Updated 15 seconds ago

Partly Cloudy
Partly Cloudy
68.4 °F
Feels Like 68.4 °F
N
3.0
Wind Variable Wind from NW

Today
High -- | Low -- °F
--% Chance of Precip.
Yesterday
High -- | Low -- °F
Precip. -- in
Pressure 29.83 in
Visibility 10.0 miles
Clouds Clear
Dew Point 54 °F
Humidity 61%
Rainfall 0.00 in
Snow Depth Not available.
6:01 AM 9:15 PM
Waxing Crescent, 35% visible
METAR KARB 291153Z AUTO 17009KT 10SM CLR 20/14 A2984 RMK AO2 SLP099 60001 70001 T02000144 10206 20183 56018
Pressure 29.83 in
Visibility 10.0 miles
Clouds Clear
Dew Point 54 °F
Humidity 61%
Rainfall 0.00 in
Snow Depth Not available.
6:01 AM 9:15 PM
Waxing Crescent, 35% visible
METAR KARB 291153Z AUTO 17009KT 10SM CLR 20/14 A2984 RMK AO2 SLP099 60001 70001 T02000144 10206 20183 56018

Get Severe Weather Alerts

Thanks for signing up!

Be on the lookout for a verification email in your inbox.

You'll start receiving the daily forecast at 6 AM.

×

10-Day Weather Forecast

Almanac

Astronomy

Jun. 29, 2017 Rise Set
Actual Time
Civil Twilight
Nautical Twilight
Astronomical Twilight
Moon
Length of Visible Light
Length of Day
Tomorrow will be .
, % of the Moon is Illuminated

Today's Extremes

State Highs State Lows

Community

WunderPhotos

Category 6

Welcome to Category 6. This is the collective home for Weather Underground's featured writeups by Dr. Jeff Masters (right), Bob Henson (left), Chris Burt, and other regular contributors.

Nearby

Air Quality

  Air Quality AQ Index Pollutant
Not available.

Snow Depth

Station Depth Elevation

Earthquake Activity

City Distance Mag. Time & Date
Minimum magnitude displayed is 2.5.

Coastal Water Temperatures

Place Temperature

Stations

Nearby Weather Stations

Station Location Temp. Windchill Dew Point Humidity Wind Precip. Elev Updated Type
                   

Watches & Warnings

There are currently no watches in effect.